Weather History for LOWW - November, 2013

Change the Weather History Date:

Friday, November 1, 2013

  Actual Average Record
Temperature  
Mean Temperature 47 °F -  
Max Temperature 57 °F 45 °F 64 °F (2003)
Min Temperature 37 °F 35 °F 33 °F (1997)
Degree Days  
Heating Degree Days 18    
Moisture  
Dew Point 42 °F    
Average Humidity 85    
Maximum Humidity 100    
Minimum Humidity 61    
Precipitation  
Precipitation 0.00 in - - ()
Sea Level Pressure  
Sea Level Pressure 30.16 in    
Wind  
Wind Speed 3 mph ()    
Max Wind Speed 7 mph    
Max Gust Speed -    
Visibility 6.1 miles    
Events Fog    
Averages and records for this station are not official NWS values.
T = Trace of Precipitation, MM = Missing Value Source: Averaged Metar Reports

Daily Weather History Graph

Daily Weather History Graph

Search for Another Location

Airport or City:

Trip Planner

Search our weather history database for the weather conditions in past years. The results will help you decide how hot, cold, wet, or windy it might be!

Date:

Astronomy

Nov. 01, 2013 Rise Set
Actual Time 6:38 AM CET 4:35 PM CET
Civil Twilight 6:06 AM CET 5:07 PM CET
Nautical Twilight 5:29 AM CET 5:44 PM CET
Astronomical Twilight 4:53 AM CET 6:20 PM CET
Moon 4:02 AM CET (11/1) 3:24 PM CET (11/1)
Length of Visible Light 11h 01m
Length of Day
9h 56m
Waning Crescent, 5% of the Moon is Illuminated
Nov 1
Waning Crescent
Nov 3
New
Nov 10
First Quarter
Nov 17
Full
Nov 25
Last Quarter

Hourly Weather History & Observations

Time (CET) Temp. Windchill Dew Point Humidity Pressure Visibility Wind Dir Wind Speed Gust Speed Precip Events Conditions
12:20 AM 44.6 °F - 39.2 °F 81% 30.21 in - WSW 2.3 mph - N/A   Clear
12:50 AM 42.8 °F - 39.2 °F 87% 30.21 in - SE 2.3 mph - N/A   Clear
1:00 AM 43 °F - 39 °F 82% 30.24 in 25 mi SE 2.2 mph - -  
1:20 AM 42.8 °F - 37.4 °F 81% 30.21 in - SW 2.3 mph - N/A   Clear
1:50 AM 42.8 °F - 39.2 °F 87% 30.21 in - Variable 1.2 mph - N/A   Clear
2:20 AM 41.0 °F - 37.4 °F 87% 30.21 in - Variable 1.2 mph - N/A   Clear
2:50 AM 39.2 °F - 35.6 °F 87% 30.21 in - Variable 1.2 mph - N/A   Clear
3:20 AM 41.0 °F 39.0 °F 37.4 °F 87% 30.21 in - West 3.5 mph - N/A   Clear
3:50 AM 39.2 °F 35.0 °F 37.4 °F 93% 30.21 in - NW 5.8 mph - N/A   Clear
4:20 AM 39.2 °F - 39.2 °F 100% 30.21 in - North 2.3 mph - N/A   Clear
4:50 AM 39.2 °F - 37.4 °F 93% 30.21 in - Variable 2.3 mph - N/A   Clear
5:20 AM 37.4 °F - 37.4 °F 100% 30.21 in - Variable 1.2 mph - N/A   Clear
5:50 AM 39.2 °F - 37.4 °F 93% 30.21 in - Variable 2.3 mph - N/A   Clear
6:20 AM 37.4 °F - 37.4 °F 100% 30.21 in 5.0 mi North 2.3 mph - N/A Fog Fog
6:50 AM 37.4 °F 34.9 °F 37.4 °F 100% 30.21 in 5.0 mi ESE 3.5 mph - N/A Fog Patches of Fog
7:00 AM 38 °F - 38 °F 98% 30.25 in 0 mi ESE 4.5 mph - - Fog Patches of Fog
7:20 AM 37.4 °F - 37.4 °F 100% 30.21 in 3.7 mi Variable 2.3 mph - N/A   Partly Cloudy
7:50 AM 41.0 °F - 39.2 °F 93% 30.21 in 3.7 mi Variable 1.2 mph - N/A   Scattered Clouds
8:20 AM 42.8 °F 41.1 °F 39.2 °F 87% 30.24 in 4.3 mi West 3.5 mph - N/A   Partly Cloudy
8:50 AM 44.6 °F 43.1 °F 41.0 °F 87% 30.24 in - WNW 3.5 mph - N/A   Clear
9:20 AM 46.4 °F 45.2 °F 42.8 °F 87% 30.24 in - NW 3.5 mph - N/A   Clear
9:50 AM 48.2 °F - 42.8 °F 82% 30.24 in - North 3.5 mph - N/A   Clear
10:00 AM 48 °F - 44 °F 79% 30.25 in 8 mi North 4.5 mph - -   Scattered Clouds
10:20 AM 50.0 °F - 44.6 °F 82% 30.21 in - NE 3.5 mph - N/A   Clear
10:50 AM 50.0 °F - 44.6 °F 82% 30.21 in 6.2 mi Variable 3.5 mph - N/A   Partly Cloudy
11:20 AM 51.8 °F - 44.6 °F 76% 30.21 in 6.2 mi NE 3.5 mph - N/A   Partly Cloudy
11:50 AM 53.6 °F - 44.6 °F 72% 30.18 in 6.2 mi Variable 2.3 mph - N/A   Partly Cloudy
12:20 PM 53.6 °F - 44.6 °F 72% 30.18 in 6.2 mi Variable 2.3 mph - N/A   Partly Cloudy
12:50 PM 55.4 °F - 44.6 °F 67% 30.18 in 6.2 mi Variable 3.5 mph - N/A   Scattered Clouds
1:00 PM 55 °F - 45 °F 61% 30.19 in 11 mi 4.5 mph - -   Partly Cloudy
1:20 PM 55.4 °F - 44.6 °F 67% 30.15 in 6.2 mi Variable 2.3 mph - N/A   Scattered Clouds
1:50 PM 57.2 °F - 44.6 °F 63% 30.15 in 6.2 mi Variable 2.3 mph - N/A   Scattered Clouds
2:20 PM 57.2 °F - 44.6 °F 63% 30.15 in - Variable 2.3 mph - N/A   Clear
2:50 PM 57.2 °F - 44.6 °F 63% 30.12 in - Variable 2.3 mph - N/A   Clear
3:20 PM 55.4 °F - 46.4 °F 72% 30.12 in - NE 3.5 mph - N/A   Clear
3:50 PM 53.6 °F - 46.4 °F 77% 30.12 in - NNE 4.6 mph - N/A   Clear
4:00 PM 54 °F - 46 °F 67% 30.14 in 11 mi NNE 4.5 mph - -   Scattered Clouds
4:20 PM 51.8 °F - 46.4 °F 82% 30.12 in - NNE 4.6 mph - N/A   Clear
4:50 PM 51.8 °F - 46.4 °F 82% 30.12 in - NNE 3.5 mph - N/A   Clear
5:20 PM 51.8 °F - 46.4 °F 82% 30.12 in - ENE 3.5 mph - N/A   Clear
5:50 PM 50.0 °F - 46.4 °F 87% 30.12 in - NE 3.5 mph - N/A   Clear
6:20 PM 48.2 °F - 44.6 °F 87% 30.09 in - ENE 3.5 mph - N/A   Clear
6:50 PM 48.2 °F - 44.6 °F 87% 30.09 in - ENE 3.5 mph - N/A   Clear
7:00 PM 48 °F - 45 °F 86% 30.13 in 7 mi ENE 4.5 mph - -   Mostly Cloudy
7:20 PM 48.2 °F - 46.4 °F 93% 30.09 in - ENE 3.5 mph - N/A   Clear
7:50 PM 48.2 °F - 44.6 °F 87% 30.09 in - East 2.3 mph - N/A   Clear
8:20 PM 46.4 °F 45.2 °F 44.6 °F 93% 30.09 in - SE 3.5 mph - N/A   Clear
8:50 PM 48.2 °F - 44.6 °F 87% 30.06 in - SSE 5.8 mph - N/A   Clear
9:20 PM 44.6 °F 40.7 °F 44.6 °F 100% 30.06 in - SSE 6.9 mph - N/A   Clear
9:50 PM 46.4 °F 44.3 °F 44.6 °F 93% 30.06 in - South 4.6 mph - N/A   Clear
10:00 PM 47 °F - 44 °F 86% 30.09 in 7 mi South 4.5 mph - -   Scattered Clouds
10:20 PM 46.4 °F 43.5 °F 44.6 °F 93% 30.04 in - SE 5.8 mph - N/A   Clear
10:50 PM 46.4 °F - 42.8 °F 87% 30.04 in - Variable 1.2 mph - N/A   Clear
11:20 PM 46.4 °F - 44.6 °F 93% 30.04 in - Variable 1.2 mph - N/A   Clear
11:50 PM 46.4 °F - 44.6 °F 93% 30.04 in - Variable 1.2 mph - N/A   Clear